Terug naar catalogus

COSMOS 2251 DEB

ActiefLEO
NORAD 33975·DEBRIS·🇷🇺 Russia

Gelanceerd Jun 16, 1993 vanaf Plesetsk Cosmodrome

Loading…

Volgende Passages (komende 24 uur)

TLE

VersSource: Space-Track

Epoch: Sep 13, 2026, 21:44 UTC

1 33975U 93036FJ  26256.90613903  .00000235  00000-0  14857-3 0  9998
2 33975  73.8020 320.5948 0189546  45.4975 316.1472 14.00863741896828

Volg COSMOS 2251 DEB in realtime met AllMySat

Download on the App Store